Regional Weather Roundup
Issued by NWS

Home | Current Version | Previous Version | Text Only | Print | Product List | Glossary Off
Versions: 1 2 3 4 5 6 7 8 9 10 11 12 13 14 15 16 17 18 19 20 21 22 23 24 25 26 27 28 29 30 31 32 33 34 35 36 37 38 39 40 41 42 43 44 45 46 47 48 49 50

742
ASUS43 KLSX 040807
RWRMO

WEATHER SUMMARY FOR MISSOURI
NATIONAL WEATHER SERVICE SPRINGFIELD MO
300 AM CDT WED MAY 04 2016

NOTE: "FAIR" INDICATES FEW OR NO CLOUDS BELOW 12,000 FEET WITH NO
       SIGNIFICANT WEATHER AND/OR OBSTRUCTIONS TO VISIBILITY.
       CURRENT SKY AND/OR WEATHER CONDITIONS ARE NOT AVAILABLE FOR
       CHILLICOTHE AND FARMINGTON.

MOZ001>031-035>038-043-044-053-054-040900-
...NORTHERN AND WESTERN MISSOURI...

CITY           SKY/WX    TMP DP  RH WIND       PRES   REMARKS
KANSAS CTY INT PTCLDY    54  43  66 W9        29.85F
KANSAS C DTWN  CLEAR     58  45  62 W10       29.85F
LEE`S SUMMIT   CLEAR     55  45  68 SW8       29.86F
ST JOSEPH      CLOUDY    59  43  55 W14       29.82F
CHILLICOTHE      N/A     59  44  57 VRB6      29.79F
KIRKSVILLE     CLOUDY    59  42  53 W14G22    29.75F

$$
MOZ066>068-077>081-088>096-101>105-040900-
...SOUTHWEST MISSOURI...

CITY           SKY/WX    TMP DP  RH WIND       PRES   REMARKS
SPRINGFIELD    PTCLDY    51  42  71 SW9       29.92F
JOPLIN         PTCLDY    56  46  69 SW13      29.95F

$$
MOZ032>034-039>042-045>050-055>058-069>072-040900-
...CENTRAL MISSOURI...

CITY           SKY/WX    TMP DP  RH WIND       PRES   REMARKS
COLUMBIA       CLEAR     55  45  68 SW14      29.80F
JEFFERSON CITY CLEAR     55  44  66 CALM      29.82F
ROLLA          CLEAR     46  41  82 S12       29.83F
SEDALIA        CLEAR     56  46  69 SW13      29.84F
WHITEMAN AFB   CLEAR     55  47  73 SW10      29.83F
WARRENSBURG    CLEAR     54  45  71 SW9       29.85F
OSAGE BEACH    CLEAR     54  37  54 SW7       29.87F

$$
MOZ051-052-059>065-040900-
...EAST CENTRAL MISSOURI...

CITY           SKY/WX    TMP DP  RH WIND       PRES   REMARKS
ST LOUIS INTL  MOCLDY    55  42  61 SW12      29.79F
SPIRIT OF STL  MOCLDY    54  43  66 SW12      29.79F
ST CHARLES     CLOUDY    54  44  69 SW12      29.77F

$$
MOZ072>076-082>087-097>100-106>115-040900-
...SOUTH CENTRAL AND SOUTHEAST MISSOURI...

CITY           SKY/WX    TMP DP  RH WIND       PRES   REMARKS
CAPE GIRARDEAU PTCLDY    50  47  89 SW3       29.87F
FARMINGTON     CLEAR     46  43  89 S5        29.86F
POPLAR BLUFF   CLEAR     50  47  89 CALM      29.90F
WEST PLAINS    CLEAR     47  39  74 W6        29.93F

$$



USA.gov is the U.S. government's official web portal to all federal, state and local government web resources and services.